GW3437 Weather Reports


Display with metric or nautical units.
time (UTC)temp
F
wind
direction
speed
MPH
gust
MPH
rain 1hr
in
rain 24hr
in
rain mn
in
humidity
%
barometer
mb
20260510013520 78 60 1.0 2.0 0.00 0.00 0.00 46 1008.8
20260510013016 78 93 0.0 1.0 0.00 0.00 0.00 45 1008.5
20260510012511 78 159 0.0 1.0 0.00 0.00 0.00 45 1008.8
20260510012007 78 174 0.0 0.0 0.00 0.00 0.00 45 1008.8
20260510011501 79 189 0.0 2.0 0.00 0.00 0.00 44 1008.7
20260510010957 79 144 0.0 1.0 0.00 0.00 0.00 44 1008.6
20260510010455 79 143 0.0 3.0 0.00 0.00 0.00 43 1008.5
20260510005951 80 186 0.0 1.0 0.00 0.00 0.00 43 1008.6
20260510005447 80 207 2.0 3.0 0.00 0.00 0.00 43 1008.7
20260510004945 80 176 0.0 1.0 0.00 0.00 0.00 43 1008.6
20260510004442 80 139 0.0 1.0 0.00 0.00 0.00 43 1009.0
20260510003940 80 41 0.0 3.0 0.00 0.00 0.00 42 1009.0
20260510003437 81 149 0.0 1.0 0.00 0.00 0.00 43 1009.0
20260510002937 81 174 0.0 2.0 0.00 0.00 0.00 42 1008.7
20260510002433 82 154 3.0 3.0 0.00 0.00 0.00 42 1008.6
20260510001929 82 148 0.0 2.0 0.00 0.00 0.00 43 1008.6
20260510001427 82 203 2.0 2.0 0.00 0.00 0.00 42 1008.8
20260510000925 82 193 1.0 3.0 0.00 0.00 0.00 42 1008.8
20260510000421 82 71 0.0 3.0 0.00 0.00 0.00 41 1008.8
20260509235917 83 184 1.0 2.0 0.00 0.00 0.00 41 1008.8
20260509235409 83 230 2.0 3.0 0.00 0.00 0.00 39 1008.7
20260509234904 84 168 1.0 3.0 0.00 0.00 0.00 39 1008.8
20260509234402 84 220 2.0 4.0 0.00 0.00 0.00 39 1008.9
20260509233900 85 198 1.0 3.0 0.00 0.00 0.00 38 1009.0
20260509233357 85 181 2.0 10.0 0.00 0.00 0.00 38 1008.9
20260509232852 85 218 6.0 9.0 0.00 0.00 0.00 37 1008.8
20260509232351 86 311 1.0 7.0 0.00 0.00 0.00 36 1008.9
20260509231846 86 202 3.0 4.0 0.00 0.00 0.00 38 1008.8
20260509231344 86 273 2.0 2.0 0.00 0.00 0.00 34 1008.9
20260509230842 87 56 0.0 4.0 0.00 0.00 0.00 33 1009.0
20260509230338 87 219 0.0 4.0 0.00 0.00 0.00 33 1009.0
20260509225833 87 61 2.0 6.0 0.00 0.00 0.00 33 1009.0
20260509225331 86 95 1.0 7.0 0.00 0.00 0.00 33 1009.1
20260509224826 86 145 2.0 7.0 0.00 0.00 0.00 33 1009.2
20260509224322 87 47 1.0 4.0 0.00 0.00 0.00 33 1009.3
20260509223820 87 195 0.0 9.0 0.00 0.00 0.00 34 1009.3
20260509223316 88 180 1.0 6.0 0.00 0.00 0.00 33 1009.4
20260509222813 87 164 1.0 7.0 0.00 0.00 0.00 34 1009.5
20260509222308 87 189 5.0 7.0 0.00 0.00 0.00 33 1009.7
20260509221804 87 61 2.0 6.0 0.00 0.00 0.00 33 1009.4
20260509221302 88 68 1.0 3.0 0.00 0.00 0.00 32 1009.6
20260509220757 89 293 1.0 4.0 0.00 0.00 0.00 31 1009.7
20260509220253 88 203 1.0 3.0 0.00 0.00 0.00 30 1009.5
20260509215748 87 40 2.0 3.0 0.00 0.00 0.00 30 1009.5
20260509215245 87 238 4.0 6.0 0.00 0.00 0.00 32 1009.8
20260509214743 87 182 2.0 8.0 0.00 0.00 0.00 33 1009.7
20260509214240 87 158 2.0 10.0 0.00 0.00 0.00 34 1009.7
20260509213737 87 159 0.0 4.0 0.00 0.00 0.00 32 1009.4
20260509213232 86 79 3.0 4.0 0.00 0.00 0.00 33 1009.6
20260509212730 88 145 1.0 9.0 0.00 0.00 0.00 33 1009.8
20260509212227 87 177 4.0 6.0 0.00 0.00 0.00 31 1009.9
20260509211723 89 69 4.0 4.0 0.00 0.00 0.00 32 1009.9
20260509211219 89 259 1.0 1.0 0.00 0.00 0.00 32 1010.1
20260509210716 89 300 1.0 4.0 0.00 0.00 0.00 32 1010.2
20260509210213 87 155 1.0 2.0 0.00 0.00 0.00 33 1010.1
20260509205713 88 52 2.0 3.0 0.00 0.00 0.00 31 1010.2
20260509205213 87 83 1.0 2.0 0.00 0.00 0.00 33 1010.2
20260509204709 88 87 1.0 3.0 0.00 0.00 0.00 32 1010.2
20260509204206 88 129 1.0 3.0 0.00 0.00 0.00 33 1010.3
20260509203701 87 198 1.0 3.0 0.00 0.00 0.00 34 1010.4
20260509203200 89 189 2.0 6.0 0.00 0.00 0.00 31 1010.3
20260509202655 88 166 0.0 4.0 0.00 0.00 0.00 32 1010.4
20260509202150 89 148 1.0 4.0 0.00 0.00 0.00 32 1010.6
20260509201646 87 42 1.0 6.0 0.00 0.00 0.00 32 1010.5
20260509201144 88 147 1.0 3.0 0.00 0.00 0.00 32 1010.6
20260509200639 86 211 1.0 2.0 0.00 0.00 0.00 32 1010.6
20260509200134 87 67 2.0 6.0 0.00 0.00 0.00 32 1010.8
20260509195630 87 155 2.0 4.0 0.00 0.00 0.00 31 1010.8
20260509195126 87 122 2.0 4.0 0.00 0.00 0.00 31 1011.0
20260509194625 85 86 1.0 4.0 0.00 0.00 0.00 33 1010.8
20260509194123 85 89 0.0 6.0 0.00 0.00 0.00 32 1011.0
20260509193618 85 68 1.0 3.0 0.00 0.00 0.00 33 1011.1
20260509193114 86 51 3.0 6.0 0.00 0.00 0.00 33 1010.9
20260509192611 86 47 2.0 6.0 0.00 0.00 0.00 34 1011.1
20260509192106 85 89 1.0 4.0 0.00 0.00 0.00 36 1011.1
20260509191601 86 220 1.0 2.0 0.00 0.00 0.00 33 1011.2
20260509191057 85 93 1.0 2.0 0.00 0.00 0.00 33 1011.6
20260509190554 85 117 1.0 2.0 0.00 0.00 0.00 34 1011.4
20260509190052 86 65 2.0 7.0 0.00 0.00 0.00 34 1011.4
20260509185549 87 216 1.0 3.0 0.00 0.00 0.00 32 1011.4
20260509185045 86 26 0.0 1.0 0.00 0.00 0.00 31 1011.6
20260509184544 87 72 2.0 4.0 0.00 0.00 0.00 33 1011.7
20260509184040 86 181 0.0 3.0 0.00 0.00 0.00 32 1011.7
20260509183535 86 107 1.0 4.0 0.00 0.00 0.00 29 1011.7
20260509183031 86 77 0.0 3.0 0.00 0.00 0.00 32 1011.8
20260509182527 85 140 0.0 0.0 0.00 0.00 0.00 34 1011.9
20260509182025 84 191 4.0 4.0 0.00 0.00 0.00 36 1011.8
20260509181523 85 214 1.0 2.0 0.00 0.00 0.00 35 1011.9
20260509181020 84 46 1.0 3.0 0.00 0.00 0.00 37 1012.0
20260509180515 85 167 0.0 4.0 0.00 0.00 0.00 34 1012.1
20260509180013 85 183 1.0 2.0 0.00 0.00 0.00 34 1011.9
20260509175508 86 351 1.0 6.0 0.00 0.00 0.00 32 1012.2
20260509175005 85 143 0.0 3.0 0.00 0.00 0.00 37 1012.4
20260509174501 83 60 1.0 3.0 0.00 0.00 0.00 40 1012.4
20260509173956 85 193 2.0 3.0 0.00 0.00 0.00 37 1012.5
20260509173451 83 89 1.0 6.0 0.00 0.00 0.00 35 1012.5
20260509172948 84 182 2.0 3.0 0.00 0.00 0.00 33 1012.8
20260509172445 83 215 5.0 6.0 0.00 0.00 0.00 35 1012.8
20260509171940 83 168 2.0 4.0 0.00 0.00 0.00 35 1012.7
20260509171437 83 214 2.0 3.0 0.00 0.00 0.00 33 1012.7
20260509170933 81 219 1.0 3.0 0.00 0.00 0.00 43 1012.6
20260509170429 83 116 0.0 3.0 0.00 0.00 0.00 40 1012.7
20260509165925 81 241 1.0 2.0 0.00 0.00 0.00 45 1013.0
20260509165419 82 198 2.0 4.0 0.00 0.00 0.00 46 1012.8
20260509164914 80 157 1.0 2.0 0.00 0.00 0.00 49 1012.8
20260509164411 80 115 2.0 4.0 0.00 0.00 0.00 49 1012.9
20260509163907 79 125 1.0 4.0 0.00 0.00 0.00 50 1013.0
20260509163404 78 196 1.0 3.0 0.00 0.00 0.00 55 1013.0
20260509162903 79 62 2.0 4.0 0.00 0.00 0.00 58 1013.1
20260509162402 78 157 1.0 2.0 0.00 0.00 0.00 59 1013.0
20260509161858 78 160 1.0 3.0 0.00 0.00 0.00 60 1013.2
20260509161354 77 104 1.0 1.0 0.00 0.00 0.00 60 1013.1
20260509160850 76 129 0.0 1.0 0.00 0.00 0.00 62 1013.2
20260509160346 78 208 2.0 3.0 0.00 0.00 0.00 58 1013.1
20260509155841 80 263 0.0 1.0 0.00 0.00 0.00 58 1013.1
20260509155338 78 66 1.0 3.0 0.00 0.00 0.00 62 1013.0
20260509154834 75 113 0.0 2.0 0.00 0.00 0.00 66 1013.0
20260509154331 74 153 1.0 3.0 0.00 0.00 0.00 65 1013.0
20260509153828 74 152 0.0 2.0 0.00 0.00 0.00 62 1013.1
20260509153324 74 193 2.0 3.0 0.00 0.00 0.00 63 1013.0
20260509152822 74 263 2.0 3.0 0.00 0.00 0.00 60 1012.8
20260509152317 74 65 1.0 1.0 0.00 0.00 0.00 63 1012.7
20260509151815 74 144 0.0 0.0 0.00 0.00 0.00 67 1012.6
20260509151311 73 138 0.0 0.0 0.00 0.00 0.00 64 1013.0
20260509150810 75 72 0.0 1.0 0.00 0.00 0.00 68 1012.8
20260509150307 75 96 0.0 0.0 0.00 0.00 0.00 68 1012.8
20260509145803 73 104 0.0 1.0 0.00 0.00 0.00 72 1012.8
20260509145258 73 105 0.0 2.0 0.00 0.00 0.00 74 1012.8
20260509144755 72 104 0.0 2.0 0.00 0.00 0.00 74 1012.6
20260509144252 71 109 0.0 1.0 0.00 0.00 0.00 78 1012.4
20260509143749 70 63 2.0 2.0 0.00 0.00 0.00 79 1012.8
20260509143246 69 92 1.0 1.0 0.00 0.00 0.00 81 1012.7
20260509142742 68 122 0.0 1.0 0.00 0.00 0.00 81 1012.9
20260509142238 68 66 0.0 0.0 0.00 0.00 0.00 81 1013.0
20260509141734 67 11 1.0 2.0 0.00 0.00 0.00 84 1013.0
20260509141231 65 94 0.0 1.0 0.00 0.00 0.00 87 1013.0
20260509140728 65 333 2.0 2.0 0.00 0.00 0.00 88 1013.0
20260509140225 64 342 2.0 3.0 0.00 0.00 0.00 89 1012.8
20260509135722 63 91 1.0 2.0 0.00 0.00 0.00 91 1012.7
20260509135220 63 16 1.0 2.0 0.00 0.00 0.00 93 1012.7
20260509134717 62 131 0.0 1.0 0.00 0.00 0.00 96 1012.8
20260509134215 61 111 0.0 2.0 0.00 0.00 0.00 97 1012.7
20260509133712 61 354 2.0 2.0 0.00 0.00 0.00 98 1012.6
20260509133208 61 71 0.0 0.0 0.00 0.00 0.00 99 1012.5
20260509132707 60 113 0.0 0.0 0.00 0.00 0.00 99 1012.6
20260509132205 59 110 0.0 0.0 0.00 0.00 0.00 99 1012.5
20260509131701 59 49 1.0 1.0 0.00 0.00 0.00 99 1012.6
20260509131158 60 75 0.0 0.0 0.00 0.00 0.00 99 1012.5
20260509130654 60 110 0.0 0.0 0.00 0.00 0.00 99 1012.5
20260509130150 60 118 0.0 0.0 0.00 0.00 0.00 99 1012.4
20260509125647 58 109 0.0 0.0 0.00 0.00 0.00 99 1012.3
20260509125143 57 92 0.0 0.0 0.00 0.00 0.00 99 1012.2
20260509124640 57 93 0.0 0.0 0.00 0.00 0.00 99 1012.1
20260509124137 57 115 0.0 0.0 0.00 0.00 0.00 99 1012.1
20260509123635 58 116 0.0 0.0 0.00 0.00 0.00 99 1012.1
20260509123132 58 132 0.0 0.0 0.00 0.00 0.00 99 1012.2
20260509122627 55 147 0.0 0.0 0.00 0.00 0.00 99 1011.9
20260509122125 55 153 0.0 0.0 0.00 0.00 0.00 99 1011.8
20260509121621 54 155 0.0 0.0 0.00 0.00 0.00 99 1011.9
20260509121119 54 161 0.0 0.0 0.00 0.00 0.00 99 1011.8
20260509120617 54 126 0.0 0.0 0.00 0.00 0.00 99 1011.7
20260509120115 54 122 0.0 0.0 0.00 0.00 0.00 99 1011.8
20260509115612 54 125 0.0 0.0 0.00 0.00 0.00 99 1011.7
20260509115109 54 125 0.0 0.0 0.00 0.00 0.00 99 1011.8
20260509114607 54 176 0.0 0.0 0.00 0.00 0.00 99 1011.7
20260509114106 53 167 0.0 0.0 0.00 0.00 0.00 99 1011.6
20260509113604 53 154 0.0 0.0 0.00 0.00 0.00 98 1011.4
20260509113101 53 154 0.0 0.0 0.00 0.00 0.00 98 1011.4
20260509112557 53 154 0.0 0.0 0.00 0.00 0.00 98 1011.4
20260509112054 54 154 0.0 0.0 0.00 0.00 0.00 98 1011.4
20260509111552 55 154 0.0 0.0 0.00 0.00 0.00 98 1011.3
20260509111048 55 155 0.0 0.0 0.00 0.00 0.00 98 1011.2
20260509110545 55 123 0.0 0.0 0.00 0.00 0.00 98 1011.1
20260509110043 55 115 0.0 0.0 0.00 0.00 0.00 98 1011.0
20260509105541 54 119 0.0 0.0 0.00 0.00 0.00 98 1011.4
20260509105038 54 126 0.0 0.0 0.00 0.00 0.00 98 1011.3
20260509104535 54 125 0.0 0.0 0.00 0.00 0.00 98 1011.2
20260509104032 55 122 0.0 0.0 0.00 0.00 0.00 98 1011.3
20260509103530 55 115 0.0 0.0 0.00 0.00 0.00 98 1011.4
20260509103028 55 114 0.0 0.0 0.00 0.00 0.00 98 1011.3
20260509102525 55 117 0.0 0.0 0.00 0.00 0.00 98 1011.3
20260509102021 55 146 0.0 0.0 0.00 0.00 0.00 98 1011.4
20260509101517 55 158 0.0 0.0 0.00 0.00 0.00 98 1011.6
20260509101014 55 142 0.0 0.0 0.00 0.00 0.00 98 1011.7
20260509100512 55 142 0.0 0.0 0.00 0.00 0.00 98 1011.8
20260509100009 56 128 0.0 0.0 0.00 0.00 0.00 98 1011.4
20260509095505 56 129 0.0 0.0 0.00 0.00 0.00 98 1011.6
20260509095003 55 130 0.0 0.0 0.00 0.00 0.00 98 1011.9
20260509094459 55 148 0.0 0.0 0.00 0.00 0.00 98 1012.0
20260509093956 55 141 0.0 0.0 0.00 0.00 0.00 98 1012.1
20260509093454 55 142 0.0 0.0 0.00 0.00 0.00 98 1012.0
20260509092952 55 140 0.0 0.0 0.00 0.00 0.00 98 1011.8
20260509092449 56 140 0.0 0.0 0.00 0.00 0.00 98 1011.9
20260509091948 56 140 0.0 0.0 0.00 0.00 0.00 98 1012.0
20260509091444 56 166 0.0 0.0 0.00 0.00 0.00 98 1011.9
20260509090942 56 167 0.0 0.0 0.00 0.00 0.00 98 1011.9
20260509090439 56 180 0.0 0.0 0.00 0.00 0.00 98 1011.9
20260509085936 57 168 0.0 0.0 0.00 0.00 0.00 97 1012.0
20260509085433 56 166 0.0 0.0 0.00 0.00 0.00 97 1011.9
20260509084929 57 151 0.0 0.0 0.00 0.00 0.00 97 1011.9
20260509084426 57 135 0.0 0.0 0.00 0.00 0.00 97 1011.6
20260509083924 57 127 0.0 0.0 0.00 0.00 0.00 97 1011.8
20260509083421 57 125 0.0 0.0 0.00 0.00 0.00 97 1011.8
20260509082918 57 122 0.0 0.0 0.00 0.00 0.00 97 1011.6
20260509082415 57 144 0.0 0.0 0.00 0.00 0.00 97 1011.8
20260509081911 57 127 0.0 0.0 0.00 0.00 0.00 97 1011.9
20260509081409 57 141 0.0 0.0 0.00 0.00 0.00 97 1011.7
20260509080906 57 141 0.0 0.0 0.00 0.00 0.00 97 1011.8
20260509080404 57 142 0.0 0.0 0.00 0.00 0.00 97 1011.8
20260509075902 57 142 0.0 0.0 0.00 0.00 0.00 97 1012.1
20260509075359 57 143 0.0 0.0 0.00 0.00 0.00 96 1012.1
20260509074856 57 143 0.0 0.0 0.00 0.00 0.00 96 1012.3
20260509074354 58 143 0.0 0.0 0.00 0.00 0.00 96 1012.2
20260509073850 58 143 0.0 0.0 0.00 0.00 0.00 96 1012.3
20260509073347 58 142 0.0 0.0 0.00 0.00 0.00 96 1012.3
20260509072843 58 141 0.0 0.0 0.00 0.00 0.00 96 1012.6
20260509072339 59 142 0.0 0.0 0.00 0.00 0.00 96 1012.5
20260509071837 59 142 0.0 0.0 0.00 0.00 0.00 96 1012.4
20260509071333 59 135 0.0 0.0 0.00 0.00 0.00 96 1012.5
20260509070830 59 140 0.0 0.0 0.00 0.00 0.00 95 1012.4
20260509070327 59 143 0.0 0.0 0.00 0.00 0.00 95 1012.5
20260509065823 59 143 0.0 0.0 0.00 0.00 0.00 95 1012.4
20260509065320 59 168 0.0 0.0 0.00 0.00 0.00 95 1012.2
20260509064815 60 216 0.0 1.0 0.00 0.00 0.00 95 1012.3
20260509064314 60 162 0.0 0.0 0.00 0.00 0.00 94 1012.2
20260509063811 60 111 0.0 0.0 0.00 0.00 0.00 94 1012.3
20260509063307 60 152 0.0 0.0 0.00 0.00 0.00 94 1012.2
20260509062804 60 154 0.0 0.0 0.00 0.00 0.00 94 1012.4
20260509062305 60 163 0.0 0.0 0.00 0.00 0.00 94 1012.6
20260509061758 60 152 0.0 0.0 0.00 0.00 0.00 94 1012.5
20260509061256 60 151 0.0 0.0 0.00 0.00 0.00 93 1012.6
20260509060753 61 155 0.0 0.0 0.00 0.00 0.00 93 1012.4
20260509060250 61 153 0.0 0.0 0.00 0.00 0.00 92 1012.5
20260509055745 61 107 0.0 1.0 0.00 0.00 0.00 92 1012.4
20260509055241 61 121 0.0 0.0 0.00 0.00 0.00 92 1012.4
20260509054738 62 153 0.0 0.0 0.00 0.00 0.00 92 1012.4
20260509054235 62 114 0.0 1.0 0.00 0.00 0.00 91 1012.4
20260509053734 62 93 0.0 1.0 0.00 0.00 0.00 91 1012.5
20260509053230 62 143 0.0 0.0 0.00 0.00 0.00 91 1012.2
20260509052728 62 114 0.0 2.0 0.00 0.00 0.00 91 1012.5
20260509052225 62 102 0.0 0.0 0.00 0.00 0.00 91 1012.5
20260509051723 62 127 0.0 0.0 0.00 0.00 0.00 91 1012.4
20260509051221 62 160 0.0 0.0 0.00 0.00 0.00 90 1012.1
20260509050717 63 107 0.0 2.0 0.00 0.00 0.00 90 1012.3
20260509050214 63 86 0.0 2.0 0.00 0.00 0.00 90 1012.5
20260509045711 63 56 0.0 0.0 0.00 0.15 0.15 90 1012.3
20260509045208 63 138 0.0 1.0 0.00 0.15 0.15 90 1012.3
20260509044705 64 134 0.0 0.0 0.00 0.15 0.15 89 1012.4
20260509044203 64 90 0.0 1.0 0.00 0.15 0.15 89 1012.5
20260509043659 64 68 0.0 3.0 0.00 0.15 0.15 88 1012.5
20260509043155 64 71 1.0 2.0 0.00 0.15 0.15 89 1012.5
20260509042651 64 96 0.0 1.0 0.00 0.15 0.15 89 1012.8
20260509042147 64 72 1.0 3.0 0.00 0.15 0.15 88 1012.7
20260509041644 64 87 2.0 3.0 0.00 0.15 0.15 89 1012.4
20260509041142 63 91 2.0 4.0 0.00 0.15 0.15 90 1012.5
20260509040640 63 84 1.0 2.0 0.00 0.15 0.15 92 1012.5
20260509040137 63 124 0.0 0.0 0.00 0.15 0.15 93 1012.1
20260509035633 63 117 0.0 0.0 0.00 0.15 0.15 93 1012.1
20260509035130 63 127 0.0 0.0 0.00 0.15 0.15 93 1012.0
20260509034628 63 108 0.0 1.0 0.00 0.15 0.15 94 1012.1
20260509034125 63 123 0.0 0.0 0.00 0.15 0.15 94 1011.9
20260509033621 63 122 0.0 3.0 0.00 0.15 0.15 94 1011.9
20260509033118 63 126 0.0 0.0 0.00 0.15 0.15 94 1011.4
20260509032616 62 136 0.0 0.0 0.00 0.15 0.15 93 1011.2
20260509032113 63 134 0.0 0.0 0.00 0.15 0.15 93 1011.3
20260509031611 64 148 0.0 0.0 0.00 0.15 0.15 93 1011.1
20260509031108 64 148 0.0 0.0 0.00 0.15 0.15 92 1010.9
20260509030606 64 122 0.0 0.0 0.00 0.15 0.15 92 1010.7
20260509025559 64 119 0.0 0.0 0.00 0.15 0.15 92 1010.7
20260509025054 64 86 1.0 2.0 0.00 0.15 0.15 92 1010.5
20260509024550 65 76 1.0 1.0 0.00 0.15 0.15 92 1010.6
20260509024046 65 49 1.0 1.0 0.00 0.15 0.15 92 1010.5
20260509023544 65 103 1.0 3.0 0.00 0.15 0.15 91 1010.5
20260509023041 65 87 1.0 1.0 0.00 0.15 0.15 91 1010.5
20260509022537 65 69 2.0 3.0 0.00 0.15 0.15 91 1010.6
20260509022035 65 102 1.0 2.0 0.00 0.15 0.15 90 1010.4
20260509021532 65 76 0.0 1.0 0.00 0.15 0.15 90 1010.4
20260509021029 65 99 1.0 4.0 0.00 0.15 0.15 90 1010.2
20260509020527 65 107 0.0 0.0 0.00 0.15 0.15 91 1009.9
20260509020024 64 141 0.0 0.0 0.00 0.15 0.15 91 1009.8
20260509015523 65 143 0.0 0.0 0.00 0.15 0.15 91 1009.6
20260509015020 65 142 0.0 0.0 0.00 0.15 0.15 89 1009.7
20260509014516 65 147 0.0 0.0 0.00 0.15 0.15 89 1009.5
20260509014013 66 147 0.0 1.0 0.00 0.15 0.15 88 1009.4